SCP
10 10 9 7 5 5 4 4 4 4 3 3 2 2 2 2 2 2 2 1 1 1 1 1 1 1 1 1 1 1 1 1 0 0 0 0 0 0 0 0 0 0 0
12 12 10 9 8 7 7 6 5 4 3 3 3 2 2 2 2 2 1 1 1 1 1 1 1 1 1 1 1 1 1 1 0 0 0 0 0 0 0 0 0 0 0
13 12 11 10 10 9 8 7 5 4 3 3 3 3 3 2 2 1 1 1 0 0 1 1 1 1 1 1 1 1 1 1 0 0 0 0 0 0 0 0 0 0 0
12 12 10 9 9 8 7 5 5 4 3 3 2 2 2 2 1 1 0 0 0 0 0 0 1 1 1 1 1 1 1 0 0 0 0 0 0 0 0 0 0 0 0
11 10 8 7 6 5 4 3 3 3 2 2 1 1 1 1 1 0 0 0 0 0 0 0 0 0 0 1 1 1 0 0 0 0 0 0 0 0 0 0 0 0 0
8 7 5 4 3 3 2 2 2 2 1 1 1 1 1 1 0 0 0 0 0 0 0 0 0 0 0 0 0 0 0 0 0 0 0 0 0 0 0 0 0 0 0
4 4 3 2 2 2 2 1 1 1 1 1 1 1 0 0 0 0 0 0 0 0 0 0 0 0 0 0 0 0 0 0 0 0 0 0 0 0 0 0 0 0 0
2 2 2 2 1 2 2 1 1 1 1 1 1 1 0 0 0 0 0 0 0 0 0 0 0 0 0 0 0 0 0 0 0 0 0 0 0 0 0 0 0 0 0
1 1 1 1 1 1 2 2 1 1 1 1 1 1 0 0 0 0 0 0 0 0 0 0 0 0 0 0 0 0 0 0 0 0 0 0 0 0 0 0 0 0 0
0 1 1 1 1 1 1 1 1 1 1 0 0 0 0 0 0 0 0 0 0 0 0 0 0 0 0 0 0 0 0 0 0 0 0 0 0 0 0 0 0 0 0
0 0 0 1 1 1 0 0 0 0 0 0 0 0 0 0 0 0 0 0 0 0 0 0 0 0 0 0 0 0 0 0 0 0 0 0 0 0 0 0 0 0 0
0 0 0 0 0 0 0 0 0 0 0 0 0 0 0 0 0 0 0 0 0 0 0 0 0 0 0 0 0 0 0 0 0 0 0 0 0 0 0 0 0 0 0
0 0 0 0 0 0 0 0 0 0 0 0 0 0 0 0 0 0 0 0 0 0 0 0 0 0 0 0 0 0 0 0 0 0 0 0 0 0 0 0 0 0 0
0 0 0 0 0 0 0 0 0 0 0 0 0 0 0 0 0 0 0 0 0 0 0 0 0 0 0 0 0 0 0 0 0 0 0 0 0 0 0 0 0 0 0
0 0 0 0 0 0 0 0 0 0 0 0 0 0 0 0 0 0 0 0 0 0 0 0 0 0 0 0 0 0 0 0 0 0 0 0 0 0 0 0 0 0 0
0 0 0 0 0 0 0 0 0 0 0 0 0 0 0 0 0 0 0 0 0 0 0 0 0 0 0 0 0 0 0 0 0 0 0 0 0 0 0 0 0 0 0
0 0 0 0 0 0 0 0 0 0 0 0 0 0 0 0 0 0 0 0 0 0 0 0 0 0 0 0 0 0 0 0 0 0 0 0 0 0 0 0 0 0 0
0 0 0 0 0 0 0 0 0 0 0 0 0 0 0 0 0 0 0 0 0 0 0 0 0 0 0 0 0 0 0 0 0 0 0 0 0 0 0 0 0 0 0
0 0 0 0 0 0 0 0 0 0 0 0 0 0 0 0 0 0 0 0 0 0 0 0 0 0 0 0 0 0 0 0 0 0 0 0 0 0 0 0 0 0 0
0 0 0 0 0 0 0 0 0 0 0 0 0 0 0 0 0 0 0 0 0 0 0 0 0 0 0 0 0 0 0 0 0 0 0 0 0 0 0 0 0 0 0
0 0 0 0 0 0 0 0 0 0 0 0 0 0 0 0 0 0 0 0 0 0 0 0 0 0 0 0 0 0 0 0 0 0 0 0 0 0 0 0 0 0 0
0 0 0 0 0 0 0 0 0 0 0 0 0 0 0 0 0 0 0 0 0 0 0 0 0 0 0 0 0 0 0 0 0 0 0 0 0 0 0 0 0 0 0
0 0 0 0 0 0 0 0 0 0 0 0 0 0 0 0 0 0 0 0 0 0 0 0 0 0 0 0 0 0 0 0 0 0 0 0 0 0 0 0 0 0 0
0 0 0 0 0 0 0 0 0 0 0 0 0 0 0 0 0 0 0 0 0 0 0 0 0 0 0 0 0 0 0 0 0 0 0 0 0 0 0 0 0 0 0
0 0 0 0 0 0 0 0 0 0 0 0 0 0 0 0 0 0 0 0 0 0 0 0 0 0 0 0 0 0 0 0 0 0 0 0 0 0 0 0 0 0 0
0 0 0 0 0 0 0 0 0 0 0 0 0 0 0 0 0 0 0 0 0 0 0 0 0 0 0 0 0 0 0 0 0 0 0 0 0 0 0 0 0 0 0
Wind_Speed
8 8 8 10 9 9 10 9 7 6 6 4 3 2 1 1 2 2 1 1 2 3 2 3 4 5 5 6 6 5 6 6 4 3 3 4 5 6 7 6 5 5 6
9 8 6 6 7 7 7 6 6 5 4 3 3 2 2 1 1 1 2 3 3 3 3 5 6 6 6 7 7 6 5 5 4 4 2 3 4 4 5 5 4 4 4
14 10 8 8 8 7 7 7 7 6 5 4 3 3 3 2 2 3 2 3 3 4 5 6 7 7 7 7 8 7 8 6 5 4 5 4 5 3 3 2 3 3 4
7 7 8 9 9 8 8 7 7 6 6 5 4 4 2 1 1 0 1 3 4 5 6 7 7 7 6 7 8 7 6 6 6 4 5 4 4 3 2 3 2 3 4
4 4 5 7 7 7 7 7 7 6 6 5 5 5 3 2 0 1 3 4 4 5 6 7 6 5 5 6 7 7 7 6 6 4 4 3 3 3 3 3 3 3 3
6 5 5 4 4 4 5 5 6 6 5 5 5 6 5 3 1 1 2 3 3 4 6 6 5 4 4 4 4 4 5 5 4 3 3 3 3 4 3 3 2 3 4
5 4 4 3 2 3 4 4 5 4 4 5 5 5 5 4 2 1 2 3 3 3 4 4 4 4 4 3 2 2 2 2 3 3 2 2 2 2 3 2 2 3 3
4 4 4 4 4 4 4 3 4 5 5 5 5 4 4 2 1 1 2 3 3 3 4 3 3 4 4 4 3 2 2 2 2 2 2 2 2 2 2 3 2 1 2
3 2 2 1 1 2 1 4 5 4 3 3 4 3 3 2 1 2 2 3 3 3 3 3 2 3 3 3 3 2 3 2 2 2 2 2 2 2 2 2 3 3 2
4 5 5 4 2 3 2 3 4 3 1 2 2 3 3 2 2 2 3 4 4 3 3 3 3 3 3 3 3 2 2 2 2 2 4 3 2 3 2 1 1 3 4
4 5 5 3 2 2 3 3 3 3 1 0 2 5 4 3 2 1 2 3 4 4 4 4 3 3 2 3 3 3 2 2 2 2 3 3 4 3 4 3 2 1 3
3 5 5 2 2 3 3 4 3 3 2 2 4 5 5 4 3 1 1 2 4 3 3 3 4 4 4 3 4 4 3 2 2 2 3 3 3 4 3 3 3 2 2
3 1 1 3 3 4 5 5 4 3 3 3 3 4 5 4 3 2 2 2 2 4 3 3 3 3 4 4 4 4 2 3 3 4 4 4 5 5 4 4 4 3 3
3 3 3 4 4 5 5 4 4 3 3 2 2 4 4 4 3 3 2 1 3 4 4 4 4 4 5 5 5 5 5 5 4 5 5 5 4 4 4 4 5 5 5
3 3 2 2 3 4 3 3 3 2 2 2 2 3 3 3 2 1 1 2 3 3 3 4 5 6 5 6 5 4 5 5 5 5 5 5 8 9 5 3 4 5 4
5 5 3 2 2 3 2 2 2 2 2 3 2 3 3 3 3 3 3 4 4 4 4 4 5 6 5 7 9 6 6 6 6 5 5 5 7 9 8 7 6 5 4
5 5 5 3 2 1 1 1 1 1 2 3 3 4 4 5 4 4 4 4 3 3 4 4 4 4 6 8 9 9 6 7 6 6 5 6 8 8 6 7 8 7 9
4 4 4 4 3 2 1 1 1 0 2 2 3 3 4 5 4 4 4 3 3 3 3 4 4 4 6 7 7 9 7 6 6 5 5 6 7 9 7 7 7 6 6
5 4 5 5 4 4 3 2 1 2 3 4 3 3 4 4 3 3 2 2 3 4 3 3 4 6 7 6 7 6 4 4 5 5 5 6 6 11 11 8 7 8 7
5 5 4 3 3 4 3 3 3 4 4 3 3 3 3 3 3 2 1 1 3 4 4 5 5 6 7 10 10 6 3 3 4 5 6 9 10 11 10 6 6 7 6
6 5 4 2 3 4 5 4 4 4 4 4 4 4 3 2 2 2 1 2 3 4 5 6 5 5 7 11 15 12 6 4 4 5 6 7 14 13 11 7 4 5 4
7 6 4 3 3 5 6 6 4 3 4 4 4 3 2 0 1 2 2 3 5 5 5 6 5 4 5 8 11 14 12 7 5 4 4 6 13 13 11 7 9 11 8
8 6 5 5 4 5 7 7 5 4 5 5 4 3 2 1 1 2 3 4 4 4 4 4 4 2 3 4 9 10 10 10 5 4 7 9 12 10 8 10 11 8 5
7 6 6 7 6 5 6 7 6 5 6 6 4 3 2 3 3 3 3 4 5 5 4 4 3 2 2 3 4 4 4 7 6 6 8 10 10 8 7 6 5 4 4
6 7 8 8 8 7 7 6 6 6 6 5 4 3 2 3 4 4 3 4 3 5 6 4 3 3 1 2 3 3 3 4 4 5 5 5 5 7 6 6 5 4 5
8 8 8 8 8 8 8 7 7 7 7 5 4 3 2 2 3 4 4 6 4 5 5 5 4 2 2 2 2 3 4 6 6 4 3 4 4 4 4 5 5 5 5
Wind_Direction
160 159 168 184 186 185 179 177 165 162 158 151 153 160 188 235 239 235 260 346 313 300 270 252 246 236 233 237 229 225 236 238 220 222 264 277 255 240 239 238 242 251 254
161 163 166 171 176 172 160 148 140 136 137 124 126 137 146 156 135 56 48 33 4 333 300 263 252 246 244 250 243 232 235 236 201 189 196 270 299 272 244 233 237 256 274
169 161 142 130 123 116 112 109 111 112 109 111 112 94 78 57 44 40 15 338 335 326 302 279 261 252 242 246 244 233 229 235 227 196 173 190 224 276 303 243 230 243 255
155 142 127 116 111 108 103 102 102 104 109 105 97 99 103 100 94 191 305 320 345 336 319 298 279 265 251 245 242 230 218 214 221 214 207 199 175 178 279 308 276 256 248
42 82 102 111 115 121 123 124 117 119 122 119 116 106 100 102 84 8 350 340 329 326 330 323 307 286 265 248 237 223 218 212 209 198 190 203 203 185 188 248 293 307 286
26 34 42 59 87 106 119 133 136 140 133 118 113 119 118 107 76 339 320 315 315 320 331 333 332 323 303 273 253 242 237 236 232 221 207 185 183 192 188 206 240 275 284
11 29 44 37 38 74 96 126 139 126 115 117 125 133 132 125 132 244 304 322 324 315 316 333 345 346 347 346 338 315 304 276 259 249 244 234 223 196 175 175 218 255 286
348 351 4 9 10 22 52 84 116 117 127 135 138 133 120 108 84 21 348 327 303 292 301 322 343 349 352 354 345 324 306 281 265 271 274 268 266 232 190 169 168 236 311
268 256 263 268 27 350 37 95 110 115 133 141 127 116 109 95 41 329 323 308 297 301 315 322 319 327 339 350 347 326 309 292 297 332 359 348 312 273 218 172 162 165 230
272 256 238 225 177 175 155 117 117 121 147 156 137 133 142 162 214 262 288 293 296 302 314 323 315 312 325 334 342 336 355 39 25 22 34 29 1 356 14 34 179 194 209
268 268 251 224 175 146 139 129 111 92 48 96 143 141 150 156 156 185 284 296 294 294 296 303 305 307 308 326 340 335 349 50 48 48 73 66 52 35 19 10 340 239 209
237 271 260 209 144 113 100 93 82 72 57 77 136 147 148 142 142 174 275 307 316 303 295 311 319 324 331 343 338 331 341 20 65 85 76 59 53 43 15 356 348 328 269
179 223 209 137 116 93 85 82 62 41 31 58 141 152 152 153 167 231 283 334 37 61 58 58 47 30 26 23 2 351 16 50 73 78 68 49 46 35 8 359 358 339 323
167 152 152 145 134 120 110 93 59 38 33 53 126 154 168 179 195 232 271 51 99 94 69 53 42 36 29 19 12 36 61 64 65 64 59 44 36 26 2 356 359 356 349
156 138 147 156 132 122 119 102 73 58 51 67 103 151 174 175 181 208 151 125 115 97 73 56 38 27 27 16 16 41 55 56 53 52 46 35 26 15 4 352 350 354 347
169 147 126 120 127 134 133 101 70 59 63 67 67 90 98 95 87 100 110 105 103 102 79 66 52 33 20 21 49 67 61 57 55 47 28 22 20 6 7 0 347 342 349
202 173 157 151 151 169 155 131 346 28 76 90 87 92 94 89 84 84 81 77 82 95 87 77 63 40 15 36 62 73 75 67 61 57 44 37 23 20 24 23 21 15 19
193 157 149 162 183 206 226 247 313 28 112 123 115 115 104 97 91 84 75 60 55 69 73 75 70 44 16 38 77 80 73 67 56 49 49 47 31 23 34 39 25 10 6
169 161 167 180 192 201 208 212 233 133 122 125 119 122 128 125 122 112 93 70 75 77 76 69 60 45 16 41 93 90 69 56 37 22 28 37 35 23 35 39 23 12 3
157 167 176 179 192 204 178 154 140 128 133 137 125 118 129 142 158 171 154 88 95 106 99 76 62 58 42 41 55 59 61 47 20 7 12 25 27 26 36 41 30 16 345
179 185 185 193 202 172 138 131 127 139 150 138 125 117 110 150 191 189 167 119 111 111 102 90 73 64 60 54 54 53 56 56 46 25 8 2 12 23 33 48 36 357 339
186 189 182 195 178 144 131 135 147 151 136 130 130 122 90 90 176 162 141 119 121 116 108 99 77 48 45 57 61 62 61 63 60 27 355 352 8 12 15 25 23 27 27
188 182 174 182 178 154 146 156 174 153 129 121 122 123 95 54 99 132 126 122 125 122 118 113 103 70 42 47 53 53 50 48 47 4 350 355 6 7 3 359 11 23 30
184 172 165 173 181 176 169 170 169 152 135 136 140 136 106 75 68 76 106 127 135 130 129 127 121 92 39 22 18 20 20 21 18 359 343 345 354 2 357 355 2 10 18
175 164 167 175 179 172 171 172 165 150 148 154 161 158 130 110 91 71 67 103 133 157 152 155 142 121 70 347 14 20 7 3 357 347 351 357 353 354 351 351 357 8 14
169 167 168 171 173 168 173 180 173 161 159 167 178 181 163 138 128 113 77 52 85 117 127 132 135 148 192 227 280 302 316 328 339 12 3 347 349 353 357 5 12 20 18